This demonstration page uses our WeatherBlox Daily Observations layout. Learn more.

39.92423, -83.80882

Hourly Observations for January 19, 2021

Temp ( °F °C ) Dew Point ( °F °C ) Humidity (%) Winds ( mph kmh ) Pressure ( in mb ) Visibility ( mi km ) Precip ( " mm )
12:56 am 00:56 Clear 30 -1.1 28 -2.2 92 92 WSW 10 17 30.09 1019 10 16.0934 0 0
1:56 am 01:56 Partly Cloudy 31 -0.6 28 -2.2 89 89 WSW 13 20 30.1 1019 10 16.0934 0 0
2:28 am 02:28 Mostly Cloudy 32 0 28 -2 87 87 W 13 20 30.12 1020 10 16.0934 0 0
2:56 am 02:56 Cloudy 32 0 28 -2.2 85 85 W 14 22 30.12 1020 10 16.0934 0 0
3:56 am 03:56 Cloudy 31 -0.6 28 -2.2 89 89 W 10 17 30.13 1020 10 16.0934 0 0
4:16 am 04:16 Cloudy 30 -1 27 -3 86 86 W 14 22 30.15 1021 10 16.0934 0 0
4:56 am 04:56 Cloudy 29 -1.7 25 -3.9 85 85 W 16 26 30.14 1021 10 16.0934 0 0
5:56 am 05:56 Partly Cloudy 27 -2.8 24 -4.4 89 89 W 13 20 30.17 1022 10 16.0934 0 0
6:56 am 06:56 Partly Cloudy 25 -3.9 22 -5.6 88 88 WNW 10 17 30.2 1023 10 16.0934 0 0
7:56 am 07:56 Sunny 21 -6.1 19 -7.2 92 92 W 7 11 30.22 1024 9 14.48406 0 0
8:56 am 08:56 Sunny 25 -3.9 22 -5.6 88 88 W 6 9 30.24 1024 9 14.48406 0 0
9:56 am 09:56 Sunny 28 -2.2 23 -5 81 81 W 8 13 30.23 1024 10 16.0934 0 0
10:56 am 10:56 Sunny 30 -1.1 23 -5 75 75 WNW 9 15 30.25 1025 10 16.0934 0 0
11:56 am 11:56 Sunny 32 0 22 -5.6 66 66 W 8 13 30.24 1024 10 16.0934 0 0
12:56 pm 12:56 Sunny 35 1.7 24 -4.4 64 64 WSW 8 13 30.23 1024 10 16.0934 0 0
1:56 pm 13:56 Sunny 37 2.8 24 -4.4 59 59 WSW 10 17 30.21 1023 10 16.0934 0 0
2:56 pm 14:56 Sunny 38 3.3 25 -3.9 60 60 SW 9 15 30.19 1022 10 16.0934 0 0
3:56 pm 15:56 Sunny 38 3.3 24 -4.4 57 57 WSW 13 20 30.19 1022 10 16.0934 0 0
4:56 pm 16:56 Sunny 37 2.8 23 -5 57 57 W 14 22 30.19 1023 10 16.0934 0 0
5:56 pm 17:56 Mostly Clear 33 0.6 23 -5 66 66 WSW 8 13 30.19 1023 10 16.0934 0 0
6:56 pm 18:56 Cloudy 35 1.7 24 -4.4 64 64 WSW 10 17 30.18 1022 10 16.0934 0 0
7:56 pm 19:56 Cloudy 35 1.7 24 -4.4 64 64 WSW 9 15 30.16 1022 10 16.0934 0 0
8:56 pm 20:56 Cloudy 34 1.1 25 -3.9 70 70 WSW 9 15 30.14 1021 10 16.0934 0 0
9:56 pm 21:56 Cloudy 36 2.2 23 -5 59 59 WSW 16 26 30.12 1020 10 16.0934 0 0
10:56 pm 22:56 Cloudy with Light Rain 36 2.2 24 -4.4 62 62 WSW 15 24 30.1 1019 10 16.0934 0.001 0.001
11:56 pm 23:56 Windy with Snow Likely 35 1.7 28 -2.2 76 76 W 21 33 30.09 1019 9 14.48406 0.001 0.001

Powered by AerisWeather